Location: Unspecified
(0.0000°N, 0.0000°E)
Time: 02:10:21
(UTC+00:00)

ARGOS - Pass Details

Date: 10 July 2022
Orbit: 819 x 835 km, 98.4° (Epoch: 14 August)

Event Time Altitude Azimuth Distance (km) Brightness Sun altitude
Rises 19:27:20 0° 203° (SSW) 3,364 6.3 -18.9°
Reaches altitude 10° 19:30:56 10° 228° (SW) 2,431 5.9 -19.7°
Maximum altitude 19:33:30 14° 257° (WSW) 2,183 6.0 -20.3°
Drops below altitude 10° 19:36:05 10° 286° (WNW) 2,431 6.8 -20.9°
Sets 19:39:43 0° 311° (NW) 3,364 7.6 -21.7°
